Location: Unspecified
(40.7945°N, 0.0000°E)
Time: 02:56:04
(UTC+00:00)

Altair - Pass Details

Date: 22 January 2021
Orbit: 1501 x 1682 km, 47.2° (Epoch: 01 March)

Event Time Altitude Azimuth Distance (km) Brightness Sun altitude
Rises 09:58:22 0° 291° (WNW) 4,936 9.7 22.2°
Reaches altitude 10° 10:01:35 10° 293° (WNW) 3,949 9.3 22.5°
Maximum altitude 10:11:47 71° 18° (NNE) 1,747 8.0 23.5°
Drops below altitude 10° 10:21:45 10° 102° (ESE) 3,870 10.3 24.5°
Sets 10:24:52 0° 105° (ESE) 4,833 10.7 24.7°
